#timestamp,LO_Frequency,Hit,StdDev 
1663930815.1,286046998.8,N
1663930816.0,286046998.8,N
1663930835.8,286047001.1,N
1663930855.6,286047001.1,N
1663930875.5,286047000.2,N
1663930895.3,286046999.8,N
1663930915.2,286047001.3,N
1663930935.9,286047002.2,N
1663930955.7,286047002.1,N
1663930975.6,286047001.7,N
1663930995.4,286047003.1,N
1663931015.3,286047001.8,N
1663931035.1,286047001.5,N
1663931036.0,286047001.5,N
1663931055.8,286047002.5,N
1663931075.7,286046999.8,N
1663931095.5,286047000.2,N
1663931115.3,286047002.0,N
1663931135.2,286047002.6,N
1663931155.0,286047001.9,N
1663931155.9,286047001.9,N
1663931175.8,286047003.9,Y
1663931195.6,286047002.7,P
1663931215.4,286047000.6,N
1663931235.3,286046998.6,N
1663931255.1,286046998.6,N
1663931275.8,286047000.3,N
1663931295.7,286046998.5,N
1663931315.5,286046999.9,N
1663931335.4,286047001.2,N
1663931355.2,286047002.5,N
1663931375.0,286047002.7,N
1663931375.9,286047002.7,N
1663931395.8,286046999.7,N
1663931415.6,286047000.4,N
1663931435.5,286046998.8,N
1663931455.3,286047000.0,N
1663931475.1,286047002.7,N
1663931495.9,286047002.8,N
1663931515.7,286047002.5,N
1663931535.5,286047002.0,N
1663931555.4,286047000.0,N
1663931575.2,286046999.7,N
1663931595.1,286047000.2,N
1663931596.0,286047000.2,N
1663931615.8,286047002.7,N
1663931635.6,286047001.8,N
1663931655.5,286046999.8,N
1663931675.3,286047000.3,N
1663931695.1,286047000.9,N
1663931715.9,286046999.3,N
1663931735.7,286046996.9,N
1663931755.6,286046996.5,N
1663931775.4,286047000.8,N
1663931795.2,286047000.0,N
1663931815.1,286047002.3,N
1663931816.0,286047002.3,N
1663931835.8,286047002.3,N
1663931855.7,286047001.3,N
1663931875.5,286047003.6,N
1663931895.3,286047004.0,N
1663931915.2,286047004.0,N
1663931935.9,286047003.2,N
1663931955.7,286047002.9,N
1663931975.6,286047005.4,N
1663931995.4,286047005.9,N
1663932015.2,286047003.7,N
1663932035.1,286047003.3,N
1663932036.0,286047003.3,N
1663932055.8,286047005.7,N
1663932075.7,286047005.8,N
1663932095.5,286047007.6,Y
1663932115.3,286047003.2,P
1663932135.2,286047003.7,P
1663932155.0,286047003.7,P
1663932155.9,286047003.7,Y
1663932175.8,286047000.8,P
1663932195.6,286047000.5,N
1663932215.4,286046998.4,N
1663932235.3,286046998.7,N
1663932255.1,286046999.1,N
1663932275.8,286046997.0,N
1663932295.7,286046996.6,N
1663932315.5,286046997.3,N
1663932335.4,286046999.1,N
1663932355.2,286046999.0,N
1663932375.0,286046999.3,N
1663932375.9,286046999.3,N
1663932395.8,286046999.6,N
1663932415.6,286046999.4,N
1663932435.4,286046997.6,N
1663932455.3,286046996.9,N
1663932475.1,286046997.2,N
1663932495.9,286046998.0,N
1663932515.7,286046995.4,N
1663932535.5,286046995.4,N
1663932555.4,286046996.3,N
1663932575.2,286046994.7,N
1663932595.0,286046991.7,Y
1663932595.9,286046991.7,P
1663932615.8,286046995.4,N
1663932635.6,286046995.1,N
1663932655.5,286046994.9,N
1663932675.3,286046997.9,N
1663932695.1,286046997.8,N
1663932715.9,286046997.8,N
1663932735.7,286046997.6,N
1663932755.5,286046994.9,N
1663932775.4,286046995.5,N
1663932795.2,286046995.8,N
1663932815.1,286046996.3,N
1663932816.0,286046996.3,N
1663932835.8,286046995.6,N
1663932855.6,286046995.4,N
1663932875.5,286046996.0,N
1663932895.3,286046993.8,Y
1663932915.1,286046997.3,P
1663932935.9,286046997.5,P
1663932955.7,286046995.3,P
1663932975.6,286046995.0,Y
1663932995.4,286047001.2,P
1663933015.2,286047000.6,N
1663933035.1,286047000.0,N
1663933036.0,286047000.0,N
1663933055.8,286047002.5,N
1663933075.7,286046999.7,N
1663933095.5,286047002.2,N
1663933115.3,286047000.1,N
1663933135.2,286047000.6,N
1663933155.0,286047000.1,N
1663933155.9,286047000.1,N
1663933175.8,286047000.9,N
1663933195.6,286047001.0,N
1663933215.4,286047000.6,N
1663933235.3,286047001.2,N
1663933255.1,286047000.0,N
1663933275.8,286046998.2,N
1663933295.7,286046999.0,N
1663933315.5,286047001.1,N
1663933335.4,286046999.4,N
1663933355.2,286046998.9,N
1663933375.0,286046999.4,N
1663933375.9,286046999.4,N
1663933395.8,286046999.0,N
1663933415.6,286046998.9,N
1663933435.4,286047000.7,N
1663933455.3,286046999.0,N
1663933475.1,286046999.1,N
1663933495.9,286046996.5,N
1663933515.7,286046999.1,N
1663933535.5,286046999.0,N
1663933555.4,286046998.9,N
1663933575.2,286046999.3,N
1663933595.0,286046998.9,N
1663933595.9,286046998.9,N
1663933615.8,286046999.0,N
1663933635.6,286046999.3,N
1663933655.5,286046999.1,N
1663933675.3,286046999.3,N
1663933695.1,286046998.3,N
1663933715.9,286046999.1,N
1663933735.7,286046996.9,Y
1663933755.5,286046996.5,P
1663933775.4,286046996.9,N
1663933795.2,286046997.7,N
1663933815.1,286046999.3,N
1663933816.0,286046999.3,N
1663933835.8,286046998.8,N
1663933855.7,286046999.5,N
1663933875.5,286046997.0,N
1663933895.3,286046999.2,N
1663933915.2,286046999.3,N
1663933935.0,286046997.1,N
1663933935.9,286046997.1,N
1663933955.8,286046998.0,N
1663933975.6,286046997.8,N
1663933995.4,286046999.6,N
1663934015.3,286046999.2,N
1663934035.1,286046998.5,N
1663934055.8,286046998.8,N
1663934075.7,286046998.2,N
1663934095.5,286046999.4,N
1663934115.4,286046996.6,Y
1663934135.2,286046998.8,P
1663934155.0,286046996.6,P
1663934155.9,286046996.6,P
1663934175.8,286046998.0,N
1663934195.6,286046997.8,N
1663934215.5,286046995.5,Y
1663934235.3,286046999.5,P
1663934255.1,286046996.5,P
1663934275.9,286046999.1,N
1663934295.7,286046998.8,N
1663934315.5,286046996.6,Y
1663934335.4,286047001.1,P
1663934355.2,286047000.6,N
1663934375.1,286046999.9,N
1663934376.0,286046999.9,N
1663934395.8,286046999.7,N
